Weather in Murovani Kurylivtsi

Ukraine / Vinnytsia Region     48°43′20″N   27°30′54″E
В апреле 2022 года жителям России запретили посещать сайт meteo.paraplan.net по решению Генеральной прокуратуры. Аудитория сайта уменьшилась в 10 раз. Владельцы сайта не видят смысла в поддержке погодного сервера в таких условиях. Сайт будет закрыт в октябре.
temp.,
°C
wind,
m/s
gust,
m/s
humid.,
%
clouds,
%
prec.,
mm/h
press.,
hPa
HPBL,
m
25 september, sun
sun2500:00+7w22825 0.0 101932
03:00+6wsw228530 0.0 101913
06:00+6sw2279100 0.0 101910
09:00+10ssw346564 0.0 1018180
12:00+15ssw4448100 0.0 1018878
15:00+16ssw3344100 0.0 10161252
18:00+15ssw225596 0.0 101532
21:00+13ssw2358100 0.0 101545
26 september, mon
mon2600:00+12ssw2259100 0.0 101413
03:00+12s1161100 0.0 101312
06:00+12sse1159100 0.0 101210
09:00+13se235698 0.0 1011136
12:00+18s4544100 0.0 1010671
15:00+15nnw6666100 0.1 1010304
18:00+14nne3471100 0.0 1009121
21:00+12ne2478100 0.1 100979
27 september, tue
tue2700:00+12ene3779100 0.3 1007137
03:00+12ene1380100 0.3 100674
06:00+11ene3589100 1.3 1004141
09:00+11ene3593100 2.7 1002193
12:00+14sse2384100 0.0 1001417
15:00+13nw3388100 0.1 1001243
18:00+13wnw458650 0.0 1000427
21:00+11wnw249598 0.0 100188
28 september, wed
wed2800:00+9wnw249620 0.0 100294
03:00+8wnw22965 0.0 100221
06:00+8w119556 0.0 100310
09:00+11sw2384100 0.0 1003150
12:00+13w238161 0.0 1004237
15:00+15wnw337218 0.0 1004472
18:00+15sw11717 0.0 100512
21:00+12ese11855 0.0 100610
29 september, thu
thu2900:00+11ese22875 0.0 100711
03:00+10ese229022 0.0 100830
06:00+10ese3592100 0.0 100784
09:00+13ese3682100 0.0 1007170
12:00+18sse4658100 0.0 1007519
15:00+22sse564784 0.0 10061221
18:00+18s3859100 0.0 1007163
21:00+17ssw2264100 0.1 100817